owner,sensor,date,latitude,longitude,vertical_datum,wind_speed,wind_to_direction,wind_speed_of_gust,qcFlag 
TABS,ioos:station:wmo:42047:1,2014-09-01T00:00:00Z,27.8966,-93.5973,4.0,4.885284024,128.1839072,6.26,'11111222,11111222,11111222' 
TABS,ioos:station:wmo:42047:1,2014-09-01T00:30:00Z,27.8966,-93.5973,4.0,5.028419235,123.9748314,6.28,'11111222,11111222,11111222' 
TABS,ioos:station:wmo:42047:1,2014-09-01T01:00:00Z,27.8966,-93.5973,4.0,5.503680587,121.5532885,6.83,'11111222,11111222,11111222' 
TABS,ioos:station:wmo:42047:1,2014-09-01T01:30:00Z,27.8966,-93.5973,4.0,5.663585437,121.8663241,7.27,'11111222,11111222,11111222' 
TABS,ioos:station:wmo:42047:1,2014-09-01T02:00:00Z,27.8966,-93.5973,4.0,5.590572421,126.0503149,7.05,'11111222,11111222,11111222' 
TABS,ioos:station:wmo:42047:1,2014-09-01T02:30:00Z,27.8966,-93.5973,4.0,5.644909211,122.705078,7.49,'11111222,11111222,11111222' 
TABS,ioos:station:wmo:42047:1,2014-09-01T03:00:00Z,27.8966,-93.5973,4.0,6.564579194,125.26407,8.34,'11111222,11111222,11111222' 
TABS,ioos:station:wmo:42047:1,2014-09-01T03:30:00Z,27.8966,-93.5973,4.0,6.790728974,122.6139025,8.67,'11111222,11111222,11111222' 
TABS,ioos:station:wmo:42047:1,2014-09-01T04:00:00Z,27.8966,-93.5973,4.0,6.311275624,129.2130863,8.45,'11111222,11111222,11111222' 
TABS,ioos:station:wmo:42047:1,2014-09-01T04:30:00Z,27.8966,-93.5973,4.0,6.876227163,121.8644115,8.86,'11111222,11111222,11111222' 
TABS,ioos:station:wmo:42047:1,2014-09-01T05:00:00Z,27.8966,-93.5973,4.0,6.468052257,126.6399171,8.39,'11111222,11111222,11111222' 
TABS,ioos:station:wmo:42047:1,2014-09-01T05:30:00Z,27.8966,-93.5973,4.0,6.841001389,130.910489,8.79,'11111222,11111222,11111222' 
TABS,ioos:station:wmo:42047:1,2014-09-01T06:00:00Z,27.8966,-93.5973,4.0,6.280835932,131.9671936,7.92,'11111222,11111222,11111222' 
TABS,ioos:station:wmo:42047:1,2014-09-01T06:30:00Z,27.8966,-93.5973,4.0,6.47021638,134.5619969,7.84,'11111222,11111222,11111222' 
TABS,ioos:station:wmo:42047:1,2014-09-01T07:00:00Z,27.8966,-93.5973,4.0,5.305186142,133.4727938,6.97,'11111222,11111222,11111222' 
TABS,ioos:station:wmo:42047:1,2014-09-01T07:30:00Z,27.8966,-93.5973,4.0,5.430653736,134.7019036,7.29,'11111222,11111222,11111222' 
TABS,ioos:station:wmo:42047:1,2014-09-01T08:00:00Z,27.8966,-93.5973,4.0,5.566192595,140.906443,7.05,'11111222,11111222,11111222' 
TABS,ioos:station:wmo:42047:1,2014-09-01T08:30:00Z,27.8966,-93.5973,4.0,5.122001562,143.1751438,6.63,'11111222,11111222,11111222' 
TABS,ioos:station:wmo:42047:1,2014-09-01T09:00:00Z,27.8966,-93.5973,4.0,5.008313089,143.7710585,6.71,'11111222,11111222,11111222' 
TABS,ioos:station:wmo:42047:1,2014-09-01T09:30:00Z,27.8966,-93.5973,4.0,4.448865024,145.8101477,5.8,'11111222,11111222,11111222' 
TABS,ioos:station:wmo:42047:1,2014-09-01T10:00:00Z,27.8966,-93.5973,4.0,4.314904402,139.8887052,5.57,'11111222,11111222,11111222' 
TABS,ioos:station:wmo:42047:1,2014-09-01T10:30:00Z,27.8966,-93.5973,4.0,4.632116147,141.398445,5.87,'11111222,11111222,11111222' 
TABS,ioos:station:wmo:42047:1,2014-09-01T11:00:00Z,27.8966,-93.5973,4.0,4.768532269,138.656138,6.28,'11111222,11111222,11111222' 
TABS,ioos:station:wmo:42047:1,2014-09-01T11:30:00Z,27.8966,-93.5973,4.0,4.256195484,139.5742263,5.35,'11111222,11111222,11111222' 
TABS,ioos:station:wmo:42047:1,2014-09-01T12:00:00Z,27.8966,-93.5973,4.0,4.236047686,134.139511,5.53,'11111222,11111222,11111222' 
TABS,ioos:station:wmo:42047:1,2014-09-01T12:30:00Z,27.8966,-93.5973,4.0,4.320474511,135.2816341,5.87,'11111222,11111222,11111222' 
TABS,ioos:station:wmo:42047:1,2014-09-01T13:00:00Z,27.8966,-93.5973,4.0,4.755207672,147.7139181,6.25,'11111222,11111222,11111222' 
TABS,ioos:station:wmo:42047:1,2014-09-01T13:30:00Z,27.8966,-93.5973,4.0,4.537631541,140.2755671,5.75,'11111222,11111222,11111222' 
TABS,ioos:station:wmo:42047:1,2014-09-01T14:00:00Z,27.8966,-93.5973,4.0,4.27800187,143.0768267,5.68,'11111222,11111222,11111222' 
TABS,ioos:station:wmo:42047:1,2014-09-01T14:30:00Z,27.8966,-93.5973,4.0,4.596194078,149.2503151,6.75,'11111222,11111222,11111222' 
TABS,ioos:station:wmo:42047:1,2014-09-01T15:00:00Z,27.8966,-93.5973,4.0,4.533221812,135.9834518,6.02,'11111222,11111222,11111222' 
TABS,ioos:station:wmo:42047:1,2014-09-01T15:30:00Z,27.8966,-93.5973,4.0,5.810232353,150.9648303,7.57,'11111222,11111222,11111222' 
TABS,ioos:station:wmo:42047:1,2014-09-01T16:00:00Z,27.8966,-93.5973,4.0,5.879838433,146.4453527,7.34,'11111222,11111222,11111222' 
TABS,ioos:station:wmo:42047:1,2014-09-01T16:30:00Z,27.8966,-93.5973,4.0,5.787780231,154.4092421,7.13,'11111222,11111222,11111222' 
TABS,ioos:station:wmo:42047:1,2014-09-01T17:00:00Z,27.8966,-93.5973,4.0,5.885448156,150.2553987,7.33,'11111222,11111222,11111222' 
TABS,ioos:station:wmo:42047:1,2014-09-01T17:30:00Z,27.8966,-93.5973,4.0,5.075598487,146.6546176,6.58,'11111222,11111222,11111222' 
TABS,ioos:station:wmo:42047:1,2014-09-01T18:00:00Z,27.8966,-93.5973,4.0,5.713466548,146.0599025,7.19,'11111222,11111222,11111222' 
TABS,ioos:station:wmo:42047:1,2014-09-01T18:30:00Z,27.8966,-93.5973,4.0,5.667892024,147.6841564,6.89,'11111222,11111222,11111222' 
TABS,ioos:station:wmo:42047:1,2014-09-01T19:00:00Z,27.8966,-93.5973,4.0,5.12035155,142.4589964,6.39,'11111222,11111222,11111222' 
TABS,ioos:station:wmo:42047:1,2014-09-01T19:30:00Z,27.8966,-93.5973,4.0,5.531084885,149.5872582,6.96,'11111222,11111222,11111222' 
TABS,ioos:station:wmo:42047:1,2014-09-01T20:00:00Z,27.8966,-93.5973,4.0,5.496071324,142.8385023,7.42,'11111222,11111222,11111222' 
TABS,ioos:station:wmo:42047:1,2014-09-01T20:30:00Z,27.8966,-93.5973,4.0,5.809173779,145.0244322,7.14,'11111222,11111222,11111222' 
TABS,ioos:station:wmo:42047:1,2014-09-01T21:00:00Z,27.8966,-93.5973,4.0,5.33922279,151.2270951,7.14,'11111222,11111222,11111222' 
TABS,ioos:station:wmo:42047:1,2014-09-01T21:30:00Z,27.8966,-93.5973,4.0,5.776988835,148.015928,7.67,'11111222,11111222,11111222' 
TABS,ioos:station:wmo:42047:1,2014-09-01T22:00:00Z,27.8966,-93.5973,4.0,5.928009784,145.2378969,7.69,'11111222,11111222,11111222' 
TABS,ioos:station:wmo:42047:1,2014-09-01T22:30:00Z,27.8966,-93.5973,4.0,5.729310604,147.8358952,7.45,'11111222,11111222,11111222' 
TABS,ioos:station:wmo:42047:1,2014-09-01T23:00:00Z,27.8966,-93.5973,4.0,6.115692929,146.6739987,7.35,'11111222,11111222,11111222' 
TABS,ioos:station:wmo:42047:1,2014-09-01T23:30:00Z,27.8966,-93.5973,4.0,6.801036686,146.9411026,8.87,'11111222,11111222,11111222' 
TABS,ioos:station:wmo:42047:1,2014-09-02T00:00:00Z,27.8966,-93.5973,4.0,5.848290348,150.4984329,7.29,'11111222,11111222,11111222' 
TABS,ioos:station:wmo:42047:1,2014-09-02T00:30:00Z,27.8966,-93.5973,4.0,6.464742841,143.9989855,8.45,'11111222,11111222,11111222' 
TABS,ioos:station:wmo:42047:1,2014-09-02T01:00:00Z,27.8966,-93.5973,4.0,6.259792329,148.7225807,7.95,'11111222,11111222,11111222' 
TABS,ioos:station:wmo:42047:1,2014-09-02T01:30:00Z,27.8966,-93.5973,4.0,5.558174161,142.6768266,7.22,'11111222,11111222,11111222' 
TABS,ioos:station:wmo:42047:1,2014-09-02T02:00:00Z,27.8966,-93.5973,4.0,6.349433046,150.5687924,8.25,'11111222,11111222,11111222' 
TABS,ioos:station:wmo:42047:1,2014-09-02T02:30:00Z,27.8966,-93.5973,4.0,6.282045845,143.3492925,7.84,'11111222,11111222,11111222' 
TABS,ioos:station:wmo:42047:1,2014-09-02T03:00:00Z,27.8966,-93.5973,4.0,6.367998116,139.3306971,8.19,'11111222,11111222,11111222' 
TABS,ioos:station:wmo:42047:1,2014-09-02T03:30:00Z,27.8966,-93.5973,4.0,7.037527975,137.8799633,8.74,'11111222,11111222,11111222' 
TABS,ioos:station:wmo:42047:1,2014-09-02T04:00:00Z,27.8966,-93.5973,4.0,6.859190914,145.7541957,8.55,'11111222,11111222,11111222' 
TABS,ioos:station:wmo:42047:1,2014-09-02T04:30:00Z,27.8966,-93.5973,4.0,6.7416096,149.021951,8.46,'11111222,11111222,11111222' 
TABS,ioos:station:wmo:42047:1,2014-09-02T05:00:00Z,27.8966,-93.5973,4.0,7.01208243,145.5170178,8.79,'11111222,11111222,11111222' 
TABS,ioos:station:wmo:42047:1,2014-09-02T05:30:00Z,27.8966,-93.5973,4.0,6.816876117,147.8256261,8.85,'11111222,11111222,11111222' 
TABS,ioos:station:wmo:42047:1,2014-09-02T06:00:00Z,27.8966,-93.5973,4.0,7.151181721,156.3387742,9.5,'11111222,11111222,11111222' 
TABS,ioos:station:wmo:42047:1,2014-09-02T06:30:00Z,27.8966,-93.5973,4.0,7.430706561,154.918161,9.78,'11111222,11111222,11111222' 
TABS,ioos:station:wmo:42047:1,2014-09-02T07:00:00Z,27.8966,-93.5973,4.0,7.380243898,154.4768456,9.36,'11111222,11111222,11111222' 
TABS,ioos:station:wmo:42047:1,2014-09-02T07:30:00Z,27.8966,-93.5973,4.0,6.943961405,156.129933,9.02,'11111222,11111222,11111222' 
TABS,ioos:station:wmo:42047:1,2014-09-02T08:00:00Z,27.8966,-93.5973,4.0,7.381774854,150.9004409,9.46,'11111222,11111222,11111222' 
TABS,ioos:station:wmo:42047:1,2014-09-02T08:30:00Z,27.8966,-93.5973,4.0,7.523855395,154.6613381,9.47,'11111222,11111222,11111222' 
TABS,ioos:station:wmo:42047:1,2014-09-02T09:00:00Z,27.8966,-93.5973,4.0,7.178997144,162.3224718,9.93,'11111222,11111222,11111222' 
TABS,ioos:station:wmo:42047:1,2014-09-02T09:30:00Z,27.8966,-93.5973,4.0,7.841288159,168.0024458,10.68,'11111222,11111222,11111222' 
TABS,ioos:station:wmo:42047:1,2014-09-02T10:00:00Z,27.8966,-93.5973,4.0,7.160425965,168.235213,9.09,'11111222,11111222,11111222' 
TABS,ioos:station:wmo:42047:1,2014-09-02T10:30:00Z,27.8966,-93.5973,4.0,7.078205987,164.1771595,8.93,'11111222,11111222,11111222' 
TABS,ioos:station:wmo:42047:1,2014-09-02T11:00:00Z,27.8966,-93.5973,4.0,6.594004853,154.8731412,8.58,'11111222,11111222,11111222' 
TABS,ioos:station:wmo:42047:1,2014-09-02T11:30:00Z,27.8966,-93.5973,4.0,6.89237985,157.1182215,8.97,'11111222,11111222,11111222' 
TABS,ioos:station:wmo:42047:1,2014-09-02T12:00:00Z,27.8966,-93.5973,4.0,6.379749211,147.1571391,8.39,'11111222,11111222,11111222' 
TABS,ioos:station:wmo:42047:1,2014-09-02T12:30:00Z,27.8966,-93.5973,4.0,6.795483794,141.9330488,8.83,'11111222,11111222,11111222' 
TABS,ioos:station:wmo:42047:1,2014-09-02T13:00:00Z,27.8966,-93.5973,4.0,6.563185202,133.8891171,8.36,'11111222,11111222,11111222' 
TABS,ioos:station:wmo:42047:1,2014-09-02T13:30:00Z,27.8966,-93.5973,4.0,6.544814741,138.3449582,8.4,'11111222,11111222,11111222' 
TABS,ioos:station:wmo:42047:1,2014-09-02T14:00:00Z,27.8966,-93.5973,4.0,6.963476143,139.3097653,9.36,'11111222,11111222,11111222' 
TABS,ioos:station:wmo:42047:1,2014-09-02T14:30:00Z,27.8966,-93.5973,4.0,5.790379953,144.7731894,7.35,'11111222,11111222,11111222' 
TABS,ioos:station:wmo:42047:1,2014-09-02T15:00:00Z,27.8966,-93.5973,4.0,5.325729997,131.803614,6.6,'11111222,11111222,11111222' 
TABS,ioos:station:wmo:42047:1,2014-09-02T15:30:00Z,27.8966,-93.5973,4.0,6.414584944,133.9265429,8.07,'11111222,11111222,11111222' 
TABS,ioos:station:wmo:42047:1,2014-09-02T16:00:00Z,27.8966,-93.5973,4.0,6.283947804,121.464491,7.98,'11111222,11111222,11111222' 
TABS,ioos:station:wmo:42047:1,2014-09-02T16:30:00Z,27.8966,-93.5973,4.0,6.930259735,126.3741785,8.89,'11111222,11111222,11111222' 
TABS,ioos:station:wmo:42047:1,2014-09-02T17:00:00Z,27.8966,-93.5973,4.0,7.418733045,129.3114717,9.58,'11111222,11111222,11111222' 
TABS,ioos:station:wmo:42047:1,2014-09-02T17:30:00Z,27.8966,-93.5973,4.0,5.403739446,158.2776088,6.84,'11111222,11111222,11111222' 
TABS,ioos:station:wmo:42047:1,2014-09-02T18:00:00Z,27.8966,-93.5973,4.0,6.561966169,135.1237975,8.42,'11111222,11111222,11111222' 
TABS,ioos:station:wmo:42047:1,2014-09-02T18:30:00Z,27.8966,-93.5973,4.0,6.626077271,126.5935275,8.34,'11111222,11111222,11111222' 
TABS,ioos:station:wmo:42047:1,2014-09-02T19:00:00Z,27.8966,-93.5973,4.0,7.172788858,124.3772155,9.32,'11111222,11111222,11111222' 
TABS,ioos:station:wmo:42047:1,2014-09-02T19:30:00Z,27.8966,-93.5973,4.0,6.892619241,124.3590206,8.89,'11111222,11111222,11111222' 
TABS,ioos:station:wmo:42047:1,2014-09-02T20:00:00Z,27.8966,-93.5973,4.0,7.076785994,122.4777468,8.62,'11111222,11111222,11111222' 
TABS,ioos:station:wmo:42047:1,2014-09-02T20:30:00Z,27.8966,-93.5973,4.0,7.523596215,129.4451244,9.52,'11111222,11111222,11111222' 
TABS,ioos:station:wmo:42047:1,2014-09-02T21:00:00Z,27.8966,-93.5973,4.0,7.377594459,136.4831891,9.31,'11111222,11111222,11111222' 
TABS,ioos:station:wmo:42047:1,2014-09-02T21:30:00Z,27.8966,-93.5973,4.0,6.626047087,134.3277189,8.6,'11111222,11111222,11111222' 
TABS,ioos:station:wmo:42047:1,2014-09-02T22:00:00Z,27.8966,-93.5973,4.0,7.40397866,134.288945,9.53,'11111222,11111222,11111222' 
TABS,ioos:station:wmo:42047:1,2014-09-02T22:30:00Z,27.8966,-93.5973,4.0,6.840497058,141.0527087,8.55,'11111222,11111222,11111222' 
TABS,ioos:station:wmo:42047:1,2014-09-02T23:00:00Z,27.8966,-93.5973,4.0,6.189321449,136.5060259,8.04,'11111222,11111222,11111222' 
TABS,ioos:station:wmo:42047:1,2014-09-02T23:30:00Z,27.8966,-93.5973,4.0,5.841130028,134.3066977,7.34,'11111222,11111222,11111222' 
TABS,ioos:station:wmo:42047:1,2014-09-03T00:00:00Z,27.8966,-93.5973,4.0,6.298587143,139.5075438,8.24,'11111222,11111222,11111222' 
TABS,ioos:station:wmo:42047:1,2014-09-03T00:30:00Z,27.8966,-93.5973,4.0,5.54657552,129.6604117,8.01,'11111222,11111222,11111222' 
TABS,ioos:station:wmo:42047:1,2014-09-03T01:00:00Z,27.8966,-93.5973,4.0,5.534509915,119.4370565,7.4,'11111222,11111222,11111222' 
TABS,ioos:station:wmo:42047:1,2014-09-03T01:30:00Z,27.8966,-93.5973,4.0,5.530325488,126.2486042,7.65,'11111222,11111222,11111222' 
TABS,ioos:station:wmo:42047:1,2014-09-03T02:00:00Z,27.8966,-93.5973,4.0,5.718540023,113.6067953,6.95,'11111222,11111222,11111222' 
TABS,ioos:station:wmo:42047:1,2014-09-03T02:30:00Z,27.8966,-93.5973,4.0,5.186135363,121.1156805,6.87,'11111222,11111222,11111222' 
TABS,ioos:station:wmo:42047:1,2014-09-03T03:00:00Z,27.8966,-93.5973,4.0,5.064632267,113.6297434,6.54,'11111222,11111222,11111222' 
TABS,ioos:station:wmo:42047:1,2014-09-03T03:30:00Z,27.8966,-93.5973,4.0,3.541200361,106.2347,6.96,'11111222,11111222,11111222' 
TABS,ioos:station:wmo:42047:1,2014-09-03T04:00:00Z,27.8966,-93.5973,4.0,5.935764483,122.967559,7.5,'11111222,11111222,11111222' 
TABS,ioos:station:wmo:42047:1,2014-09-03T04:30:00Z,27.8966,-93.5973,4.0,6.244629693,122.4433891,7.65,'11111222,11111222,11111222' 
TABS,ioos:station:wmo:42047:1,2014-09-03T05:00:00Z,27.8966,-93.5973,4.0,6.535839655,110.0433977,8.11,'11111222,11111222,11111222' 
TABS,ioos:station:wmo:42047:1,2014-09-03T05:30:00Z,27.8966,-93.5973,4.0,7.172070831,133.6444589,8.95,'11111222,11111222,11111222' 
TABS,ioos:station:wmo:42047:1,2014-09-03T06:00:00Z,27.8966,-93.5973,4.0,6.743826807,121.6635085,8.52,'11111222,11111222,11111222' 
TABS,ioos:station:wmo:42047:1,2014-09-03T06:30:00Z,27.8966,-93.5973,4.0,6.403787942,130.6307343,7.98,'11111222,11111222,11111222' 
TABS,ioos:station:wmo:42047:1,2014-09-03T07:00:00Z,27.8966,-93.5973,4.0,6.218440319,127.5520718,8.09,'11111222,11111222,11111222' 
TABS,ioos:station:wmo:42047:1,2014-09-03T07:30:00Z,27.8966,-93.5973,4.0,6.517675966,130.5825507,8.74,'11111222,11111222,11111222' 
TABS,ioos:station:wmo:42047:1,2014-09-03T08:00:00Z,27.8966,-93.5973,4.0,6.455548002,124.9705462,8.21,'11111222,11111222,11111222' 
TABS,ioos:station:wmo:42047:1,2014-09-03T08:30:00Z,27.8966,-93.5973,4.0,6.432363485,132.795302,8.3,'11111222,11111222,11111222' 
TABS,ioos:station:wmo:42047:1,2014-09-03T09:00:00Z,27.8966,-93.5973,4.0,6.180177991,135.2625365,7.95,'11111222,11111222,11111222' 
TABS,ioos:station:wmo:42047:1,2014-09-03T09:30:00Z,27.8966,-93.5973,4.0,5.753511971,132.6759382,7.42,'11111222,11111222,11111222' 
TABS,ioos:station:wmo:42047:1,2014-09-03T10:00:00Z,27.8966,-93.5973,4.0,5.361343115,125.5877083,6.8,'11111222,11111222,11111222' 
TABS,ioos:station:wmo:42047:1,2014-09-03T10:30:00Z,27.8966,-93.5973,4.0,5.361436375,123.1272528,7.07,'11111222,11111222,11111222' 
TABS,ioos:station:wmo:42047:1,2014-09-03T11:00:00Z,27.8966,-93.5973,4.0,5.375983631,115.8027842,6.74,'11111222,11111222,11111222' 
TABS,ioos:station:wmo:42047:1,2014-09-03T11:30:00Z,27.8966,-93.5973,4.0,5.282471013,113.0707792,7.1,'11111222,11111222,11111222' 
TABS,ioos:station:wmo:42047:1,2014-09-03T12:00:00Z,27.8966,-93.5973,4.0,5.576468416,104.8590006,7.04,'11111222,11111222,11111222' 
TABS,ioos:station:wmo:42047:1,2014-09-03T12:30:00Z,27.8966,-93.5973,4.0,5.181245024,106.0217281,6.8,'11111222,11111222,11111222' 
TABS,ioos:station:wmo:42047:1,2014-09-03T13:00:00Z,27.8966,-93.5973,4.0,5.266421935,106.0952201,6.88,'11111222,11111222,11111222' 
TABS,ioos:station:wmo:42047:1,2014-09-03T13:30:00Z,27.8966,-93.5973,4.0,5.592924101,104.2850933,7.11,'11111222,11111222,11111222' 
TABS,ioos:station:wmo:42047:1,2014-09-03T14:00:00Z,27.8966,-93.5973,4.0,5.268064161,106.5433656,6.82,'11111222,11111222,11111222' 
TABS,ioos:station:wmo:42047:1,2014-09-03T14:30:00Z,27.8966,-93.5973,4.0,5.518496172,110.4713557,6.85,'11111222,11111222,11111222' 
TABS,ioos:station:wmo:42047:1,2014-09-03T15:00:00Z,27.8966,-93.5973,4.0,6.00170809,105.2638768,7.92,'11111222,11111222,11111222' 
TABS,ioos:station:wmo:42047:1,2014-09-03T15:30:00Z,27.8966,-93.5973,4.0,5.998408122,104.7779815,7.46,'11111222,11111222,11111222' 
TABS,ioos:station:wmo:42047:1,2014-09-03T16:00:00Z,27.8966,-93.5973,4.0,5.877312311,107.017102,7.49,'11111222,11111222,11111222' 
TABS,ioos:station:wmo:42047:1,2014-09-03T16:30:00Z,27.8966,-93.5973,4.0,6.249047927,107.797446,7.9,'11111222,11111222,11111222' 
TABS,ioos:station:wmo:42047:1,2014-09-03T17:00:00Z,27.8966,-93.5973,4.0,6.090812754,108.9707844,7.71,'11111222,11111222,11111222' 
TABS,ioos:station:wmo:42047:1,2014-09-03T17:30:00Z,27.8966,-93.5973,4.0,5.675464739,110.9581545,7.9,'11111222,11111222,11111222' 
TABS,ioos:station:wmo:42047:1,2014-09-03T18:00:00Z,27.8966,-93.5973,4.0,6.204417781,108.6105421,7.55,'11111222,11111222,11111222' 
TABS,ioos:station:wmo:42047:1,2014-09-03T18:30:00Z,27.8966,-93.5973,4.0,6.215609383,106.1610329,7.74,'11111222,11111222,11111222' 
TABS,ioos:station:wmo:42047:1,2014-09-03T19:00:00Z,27.8966,-93.5973,4.0,5.815917812,102.411659,7.67,'11111222,11111222,11111222' 
TABS,ioos:station:wmo:42047:1,2014-09-03T19:30:00Z,27.8966,-93.5973,4.0,5.263401942,107.1271198,6.98,'11111222,11111222,11111222' 
TABS,ioos:station:wmo:42047:1,2014-09-03T20:00:00Z,27.8966,-93.5973,4.0,5.39893508,104.3712384,6.89,'11111222,11111222,11111222' 
TABS,ioos:station:wmo:42047:1,2014-09-03T20:30:00Z,27.8966,-93.5973,4.0,5.501563414,103.0262311,7.24,'11111222,11111222,11111222' 
TABS,ioos:station:wmo:42047:1,2014-09-03T21:00:00Z,27.8966,-93.5973,4.0,5.611933713,106.885428,7.52,'11111222,11111222,11111222' 
TABS,ioos:station:wmo:42047:1,2014-09-03T21:30:00Z,27.8966,-93.5973,4.0,5.370754137,107.2207599,6.95,'11111222,11111222,11111222' 
TABS,ioos:station:wmo:42047:1,2014-09-03T22:00:00Z,27.8966,-93.5973,4.0,5.062114183,110.2252331,6.51,'11111222,11111222,11111222' 
TABS,ioos:station:wmo:42047:1,2014-09-03T22:30:00Z,27.8966,-93.5973,4.0,5.15963177,118.6019512,6.53,'11111222,11111222,11111222' 
TABS,ioos:station:wmo:42047:1,2014-09-03T23:00:00Z,27.8966,-93.5973,4.0,5.406153901,112.6283855,6.56,'11111222,11111222,11111222' 
TABS,ioos:station:wmo:42047:1,2014-09-03T23:30:00Z,27.8966,-93.5973,4.0,5.242375416,110.198245,6.82,'11111222,11111222,11111222' 
TABS,ioos:station:wmo:42047:1,2014-09-04T00:00:00Z,27.8966,-93.5973,4.0,5.216713525,110.0679321,6.7,'11111222,11111222,11111222' 
TABS,ioos:station:wmo:42047:1,2014-09-04T00:30:00Z,27.8966,-93.5973,4.0,5.101538983,112.5943152,6.69,'11111222,11111222,11111222' 
TABS,ioos:station:wmo:42047:1,2014-09-04T01:00:00Z,27.8966,-93.5973,4.0,5.340908162,111.1842216,6.44,'11111222,11111222,11111222' 
TABS,ioos:station:wmo:42047:1,2014-09-04T01:30:00Z,27.8966,-93.5973,4.0,5.467613739,105.0533065,7.07,'11111222,11111222,11111222' 
TABS,ioos:station:wmo:42047:1,2014-09-04T02:00:00Z,27.8966,-93.5973,4.0,5.527675823,108.5664377,6.97,'11111222,11111222,11111222' 
TABS,ioos:station:wmo:42047:1,2014-09-04T02:30:00Z,27.8966,-93.5973,4.0,5.737909027,109.7616702,7.17,'11111222,11111222,11111222' 
TABS,ioos:station:wmo:42047:1,2014-09-04T03:00:00Z,27.8966,-93.5973,4.0,5.80982788,107.5308978,7.45,'11111222,11111222,11111222' 
TABS,ioos:station:wmo:42047:1,2014-09-04T03:30:00Z,27.8966,-93.5973,4.0,5.983853274,112.708618,7.55,'11111222,11111222,11111222' 
TABS,ioos:station:wmo:42047:1,2014-09-04T04:00:00Z,27.8966,-93.5973,4.0,6.046486583,108.9147769,7.78,'11111222,11111222,11111222' 
TABS,ioos:station:wmo:42047:1,2014-09-04T04:30:00Z,27.8966,-93.5973,4.0,5.045255197,105.9925769,6.37,'11111222,11111222,11111222' 
TABS,ioos:station:wmo:42047:1,2014-09-04T05:00:00Z,27.8966,-93.5973,4.0,5.426647215,119.3523544,7.23,'11111222,11111222,11111222' 
TABS,ioos:station:wmo:42047:1,2014-09-04T05:30:00Z,27.8966,-93.5973,4.0,5.539431379,119.5271356,6.93,'11111222,11111222,11111222' 
TABS,ioos:station:wmo:42047:1,2014-09-04T06:00:00Z,27.8966,-93.5973,4.0,5.728813141,116.6548645,7.64,'11111222,11111222,11111222' 
TABS,ioos:station:wmo:42047:1,2014-09-04T06:30:00Z,27.8966,-93.5973,4.0,5.739346653,119.2004018,7.22,'11111222,11111222,11111222' 
TABS,ioos:station:wmo:42047:1,2014-09-04T07:00:00Z,27.8966,-93.5973,4.0,5.482855096,116.4252088,6.82,'11111222,11111222,11111222' 
TABS,ioos:station:wmo:42047:1,2014-09-04T07:30:00Z,27.8966,-93.5973,4.0,5.879455757,120.2287287,7.63,'11111222,11111222,11111222' 
TABS,ioos:station:wmo:42047:1,2014-09-04T08:00:00Z,27.8966,-93.5973,4.0,5.930067453,116.435782,7.96,'11111222,11111222,11111222' 
TABS,ioos:station:wmo:42047:1,2014-09-04T08:30:00Z,27.8966,-93.5973,4.0,5.986526539,118.3205569,7.81,'11111222,11111222,11111222' 
TABS,ioos:station:wmo:42047:1,2014-09-04T09:00:00Z,27.8966,-93.5973,4.0,5.594649229,130.7238097,7.15,'11111222,11111222,11111222' 
TABS,ioos:station:wmo:42047:1,2014-09-04T09:30:00Z,27.8966,-93.5973,4.0,5.135533078,131.6060675,6.84,'11111222,11111222,11111222' 
TABS,ioos:station:wmo:42047:1,2014-09-04T10:00:00Z,27.8966,-93.5973,4.0,5.416650256,117.6061743,6.91,'11111222,11111222,11111222' 
TABS,ioos:station:wmo:42047:1,2014-09-04T10:30:00Z,27.8966,-93.5973,4.0,6.048222879,111.4323622,7.76,'11111222,11111222,11111222' 
TABS,ioos:station:wmo:42047:1,2014-09-04T11:00:00Z,27.8966,-93.5973,4.0,5.908586972,115.5679333,7.69,'11111222,11111222,11111222' 
TABS,ioos:station:wmo:42047:1,2014-09-04T11:30:00Z,27.8966,-93.5973,4.0,5.259068359,125.7153225,6.91,'11111222,11111222,11111222' 
TABS,ioos:station:wmo:42047:1,2014-09-04T12:00:00Z,27.8966,-93.5973,4.0,5.423098745,121.5801635,7.19,'11111222,11111222,11111222' 
TABS,ioos:station:wmo:42047:1,2014-09-04T12:30:00Z,27.8966,-93.5973,4.0,5.708984148,125.80635,7.13,'11111222,11111222,11111222' 
TABS,ioos:station:wmo:42047:1,2014-09-04T13:00:00Z,27.8966,-93.5973,4.0,5.223983155,121.3779206,6.71,'11111222,11111222,11111222' 
TABS,ioos:station:wmo:42047:1,2014-09-04T13:30:00Z,27.8966,-93.5973,4.0,5.480191602,121.9503177,6.83,'11111222,11111222,11111222' 
TABS,ioos:station:wmo:42047:1,2014-09-04T14:00:00Z,27.8966,-93.5973,4.0,5.332410337,119.3054282,6.83,'11111222,11111222,11111222' 
TABS,ioos:station:wmo:42047:1,2014-09-04T14:30:00Z,27.8966,-93.5973,4.0,5.022240536,116.3613302,6.43,'11111222,11111222,11111222' 
TABS,ioos:station:wmo:42047:1,2014-09-04T15:00:00Z,27.8966,-93.5973,4.0,5.255435282,114.0292707,7.03,'11111222,11111222,11111222' 
TABS,ioos:station:wmo:42047:1,2014-09-04T15:30:00Z,27.8966,-93.5973,4.0,4.774484265,125.0218526,6.39,'11111222,11111222,11111222' 
TABS,ioos:station:wmo:42047:1,2014-09-04T16:00:00Z,27.8966,-93.5973,4.0,4.615419808,117.0650686,5.93,'11111222,11111222,11111222' 
TABS,ioos:station:wmo:42047:1,2014-09-04T16:30:00Z,27.8966,-93.5973,4.0,4.341658669,114.2040408,5.6,'11111222,11111222,11111222' 
TABS,ioos:station:wmo:42047:1,2014-09-04T17:00:00Z,27.8966,-93.5973,4.0,4.267095031,115.5445264,5.44,'11111222,11111222,11111222' 
TABS,ioos:station:wmo:42047:1,2014-09-04T17:30:00Z,27.8966,-93.5973,4.0,4.232493355,109.8909565,5.43,'11111222,11111222,11111222' 
TABS,ioos:station:wmo:42047:1,2014-09-04T18:00:00Z,27.8966,-93.5973,4.0,3.806954163,112.3886899,5.04,'11111222,11111222,11111222' 
TABS,ioos:station:wmo:42047:1,2014-09-04T18:30:00Z,27.8966,-93.5973,4.0,4.10307202,119.8145139,5.15,'11111222,11111222,11111222' 